Location: Munkebjergskolens Observatorium
(55.3864°N, 10.3987°E)
Time: 11:55:24
(UTC+01:00)

deb Agena D - Visible Passes

Search period start: 30 November 2023 00:00
Search period end: 10 December 2023 00:00
Orbit: 605 x 649 km, 70.0° (Epoch: 30 November)

Date Brightness Start Highest point End Pass type
(mag) Time Alt. Az. Time Alt. Az. Time Alt. Az.
30 Nov ? 17:10:36 10° SE 17:13:26 17° ESE 17:15:03 14° E visible
30 Nov ? 18:47:55 10° SW 18:52:19 86° WNW 18:52:23 86° NNW visible
30 Nov ? 20:28:52 10° W 20:29:43 14° WNW 20:29:43 14° WNW visible
01 Dec ? 17:29:07 10° S 17:32:57 30° ESE 17:34:54 21° ENE visible
01 Dec ? 19:07:57 10° SW 19:12:13 51° NW 19:12:13 51° NW visible
02 Dec ? 17:48:17 10° SSW 17:52:34 54° ESE 17:54:39 28° NE visible
02 Dec ? 19:28:17 10° WSW 19:31:58 32° NW 19:31:58 32° NW visible
03 Dec ? 18:07:54 10° SW 18:12:18 85° NW 18:14:19 32° NNE visible
03 Dec ? 19:48:51 10° W 19:51:37 22° NW 19:51:37 22° NW visible
04 Dec ? 16:48:59 10° S 16:52:50 30° ESE 16:56:35 11° NE visible
04 Dec ? 18:27:51 10° WSW 18:32:08 51° NW 18:33:54 31° N visible
04 Dec ? 20:09:37 10° WNW 20:11:12 15° NW 20:11:12 15° NW visible
05 Dec ? 17:08:05 10° SSW 17:12:22 55° ESE 17:16:07 14° NE visible
05 Dec ? 18:48:06 10° WSW 18:52:05 33° NW 18:53:24 27° N visible
05 Dec ? 20:30:27 10° NW 20:30:42 11° NW 20:30:42 11° NW visible
06 Dec ? 17:27:37 10° SW 17:32:01 85° NW 17:35:33 16° NE visible
06 Dec ? 19:08:35 10° W 19:12:08 23° NNW 19:12:51 22° NNW visible
07 Dec ? 17:47:30 10° WSW 17:51:47 50° NW 17:54:56 18° NNE visible
07 Dec ? 19:29:16 10° WNW 19:32:14 18° NNW 19:32:14 18° NNW visible
08 Dec ? 16:27:39 10° SSW 16:31:56 55° ESE 16:36:17 10° NE visible
08 Dec ? 18:07:40 10° WSW 18:11:39 32° NW 18:14:16 18° NNE visible
08 Dec ? 19:50:00 10° NW 19:51:34 14° NNW 19:51:34 14° NNW visible
09 Dec ? 16:47:06 10° SW 16:51:30 84° NW 16:55:58 10° NE visible
09 Dec ? 18:28:04 10° W 18:31:37 23° NNW 18:33:33 18° N visible
09 Dec ? 20:10:38 10° NW 20:10:50 10° NNW 20:10:50 10° NNW visible
